Probability
0 0 0 0 0 0 0 0 0 0 0 0 0 0 0 0 0 0 0 0 0 0 0 0 0 0 0 0 0 0 0 0 0 0 0 0 0 0 0 0 0 0 0
0 0 0 0 0 0 0 0 0 0 0 0 0 0 0 0 0 0 0 0 0 0 0 0 0 0 0 0 0 0 0 0 0 0 0 0 0 0 0 0 0 0 0
0 0 0 0 0 0 0 0 0 0 0 0 0 0 0 0 0 0 0 0 0 0 0 0 0 0 0 0 0 0 0 0 0 0 0 0 0 0 0 0 0 0 0
0 0 0 0 0 0 0 0 0 0 0 0 0 0 0 0 0 0 0 0 0 0 0 0 0 0 0 0 0 0 0 0 0 0 0 0 0 0 0 0 0 0 0
0 0 0 0 0 0 0 0 0 0 0 0 0 0 0 0 0 0 0 0 0 0 0 0 0 0 0 0 0 0 0 0 0 0 0 0 0 0 0 0 0 0 0
0 0 0 0 0 0 0 0 0 0 0 0 0 0 0 0 0 0 0 0 0 0 0 0 0 0 0 0 0 0 0 0 0 0 0 0 0 0 0 0 0 0 0
0 0 0 0 0 0 0 0 0 0 0 0 0 0 0 0 0 0 0 0 0 0 0 0 0 0 0 0 0 0 0 0 0 0 0 0 0 0 0 0 0 0 0
0 0 0 0 0 0 0 0 0 0 0 0 0 0 0 0 0 0 0 0 0 0 0 0 0 0 0 0 0 0 0 0 0 0 0 0 0 0 0 0 0 0 0
0 0 0 0 0 0 0 0 0 0 0 0 0 0 0 0 0 0 0 0 0 0 0 0 0 0 0 0 0 0 0 0 0 0 0 0 0 0 0 0 0 0 0
0 0 0 0 0 0 0 0 0 0 0 0 0 0 0 0 0 0 0 0 0 0 0 0 0 0 0 0 0 0 0 0 0 0 0 0 0 0 0 0 0 0 0
0 0 0 0 0 0 0 0 0 0 0 0 0 0 0 0 0 0 0 0 0 0 0 0 0 0 0 0 0 0 0 0 0 0 0 0 0 0 0 0 0 0 0
0 0 0 0 0 0 0 0 0 0 0 0 0 0 0 0 0 0 0 0 0 0 0 0 0 0 0 0 0 0 0 0 0 0 0 0 0 0 0 0 0 0 0
0 0 0 0 0 0 0 0 0 0 0 0 0 0 0 0 0 0 0 0 0 0 0 0 0 0 0 0 0 0 0 0 0 0 0 0 0 0 0 0 0 0 0
0 0 0 0 0 0 0 0 0 0 0 0 0 0 0 0 0 0 0 0 0 0 0 0 0 0 0 0 0 0 0 0 0 0 0 0 0 0 0 0 0 0 0
0 0 0 0 0 0 0 0 0 0 0 0 0 0 0 0 0 0 0 0 0 0 0 0 0 0 0 0 0 0 0 0 0 0 0 0 0 0 0 0 0 0 0
0 0 0 0 0 0 0 0 0 0 0 0 0 0 0 0 0 0 0 0 0 0 0 0 0 0 0 0 0 0 0 0 0 0 0 0 0 0 0 0 0 0 0
0 0 0 0 0 0 0 0 0 0 0 0 0 0 0 0 0 0 0 0 0 0 0 0 0 0 0 0 0 0 0 0 0 0 0 0 0 0 0 0 0 0 0
0 0 0 0 0 0 0 0 0 0 0 0 0 0 0 0 0 0 0 0 0 0 0 0 0 0 0 0 0 0 0 0 0 0 0 0 0 0 0 0 0 0 0
0 0 0 0 0 0 0 0 0 0 0 0 0 0 0 0 0 0 0 0 0 0 0 0 0 0 0 0 0 0 0 0 0 0 0 0 0 0 0 0 0 0 0
0 0 0 0 0 0 0 0 0 0 0 0 0 0 0 0 0 0 0 0 0 0 0 0 0 0 0 0 0 0 0 0 0 0 0 0 0 0 0 0 0 0 0
0 0 0 0 0 0 0 0 0 0 0 0 0 0 0 0 0 0 0 0 0 0 0 0 0 0 0 0 0 0 0 0 0 0 0 0 0 0 0 0 0 0 0
0 0 0 0 0 0 0 0 0 0 0 0 0 0 0 0 0 0 0 0 0 0 0 0 0 0 0 0 0 0 0 0 0 0 0 0 0 0 0 0 0 0 0
0 0 0 0 0 0 0 0 0 0 0 0 0 0 0 0 0 0 0 0 0 0 0 0 0 0 0 0 0 0 0 0 0 0 0 0 0 0 0 0 0 0 0
0 0 0 0 0 0 0 0 0 0 0 0 0 0 0 0 0 0 0 0 0 0 0 0 0 0 0 0 0 0 0 0 0 0 0 0 0 0 0 0 0 0 0
0 0 0 0 0 0 0 0 0 0 0 0 0 0 0 0 0 0 0 0 0 0 0 0 0 0 0 0 0 0 0 0 0 0 0 0 0 0 0 0 0 0 0
0 0 0 0 0 0 0 0 0 0 0 0 0 0 0 0 0 0 0 0 0 0 0 0 0 0 0 0 0 0 0 0 0 0 0 0 0 0 0 0 0 0 0
Wind_Speed
4 4 4 3 3 3 2 2 1 1 0 0 1 1 1 1 1 1 1 2 2 2 2 3 4 4 3 3 3 4 4 4 7 6 4 4 4 5 6 5 6 6 6
4 4 3 3 3 3 2 2 1 1 1 1 1 1 2 2 2 2 2 3 2 3 3 3 4 4 4 4 4 5 5 5 6 8 5 4 5 5 6 6 6 6 5
3 4 3 3 3 2 2 2 1 1 1 1 1 1 2 2 2 3 3 3 3 3 4 4 5 4 5 4 5 5 5 5 5 6 6 5 4 5 5 6 6 6 7
3 3 3 3 3 2 2 2 1 1 1 1 2 2 2 3 3 3 3 3 3 4 4 5 5 5 5 6 5 6 6 6 5 5 6 5 5 4 4 5 6 5 6
3 3 2 2 2 2 1 1 1 1 1 1 2 2 3 3 3 4 4 4 4 4 4 5 5 7 8 7 6 5 5 5 5 5 6 5 5 4 5 4 7 6 6
2 2 2 2 1 1 1 1 0 1 1 1 2 3 3 3 6 8 6 4 4 4 5 5 6 7 9 12 13 12 10 7 6 6 6 6 7 6 5 6 7 7 7
2 1 1 1 1 1 1 0 1 1 1 2 2 3 3 5 9 9 9 5 4 4 4 5 5 6 8 6 10 12 11 13 13 8 8 8 8 7 7 8 7 8 8
2 1 1 1 1 0 0 0 1 1 1 2 3 3 3 5 9 9 9 4 3 4 5 5 5 5 7 8 7 7 7 8 10 8 7 8 8 7 8 8 8 8 8
2 1 0 1 1 0 0 1 1 1 1 2 3 3 3 6 9 10 9 3 3 5 5 5 6 5 10 13 8 7 8 8 10 13 13 12 14 13 10 6 6 6 8
0 0 0 1 0 0 1 1 1 1 2 3 3 3 4 5 9 10 10 3 4 5 5 5 9 9 12 13 7 6 8 8 7 7 8 9 8 9 11 7 5 7 7
0 1 1 1 0 0 1 1 1 1 2 2 3 4 4 5 8 10 11 5 4 5 5 4 5 12 14 14 11 6 9 9 6 5 5 5 5 5 5 5 5 6 7
1 1 1 1 1 1 1 1 1 1 2 3 3 4 3 5 7 8 11 10 9 5 5 5 6 13 14 14 10 11 14 11 5 5 5 5 5 5 5 5 7 7 7
2 1 1 1 1 1 1 2 2 1 2 3 3 3 4 4 5 10 11 12 12 7 6 10 12 14 13 9 11 13 10 5 4 5 6 6 5 5 6 6 6 7 7
1 0 1 1 1 2 1 2 2 2 2 3 3 4 4 4 4 4 5 6 9 8 6 8 11 12 9 9 9 7 4 4 5 5 6 6 5 5 5 5 5 5 6
0 0 1 1 2 2 2 2 3 3 4 4 3 4 4 4 7 11 8 5 4 5 5 3 3 4 4 4 4 4 4 4 5 4 5 6 6 6 6 5 5 5 5
1 1 1 1 1 2 2 3 5 6 8 9 8 7 6 9 13 13 13 13 13 11 6 3 4 4 5 5 5 5 5 5 5 5 5 5 6 6 6 5 5 5 5
1 2 2 2 2 2 2 3 4 5 7 8 10 11 10 12 13 13 13 13 12 10 4 4 4 5 5 5 5 5 5 5 5 5 5 5 6 6 6 6 6 5 6
2 3 3 2 2 2 3 3 3 4 5 5 7 10 12 12 12 13 13 9 6 5 3 4 5 5 5 5 5 5 6 5 5 5 5 5 5 6 6 6 6 6 6
2 2 2 2 2 2 3 3 3 4 4 5 5 7 10 11 11 11 10 4 4 5 5 5 5 5 5 6 6 6 6 6 6 6 6 6 5 5 6 6 6 10 8
2 4 4 2 2 2 3 3 3 4 4 4 5 5 6 6 5 5 4 4 4 5 5 5 5 5 6 6 6 6 6 6 6 6 6 6 5 5 6 7 7 7 7
2 3 5 3 2 3 3 3 4 4 4 5 5 7 10 5 5 5 5 5 5 5 5 5 5 6 6 6 6 6 7 7 6 6 6 6 6 6 6 6 7 7 7
2 2 3 3 3 3 4 3 4 4 5 6 6 7 12 6 5 5 5 5 5 5 5 5 6 5 6 6 6 7 7 7 7 6 6 6 6 6 6 6 6 6 7
2 3 3 3 3 5 5 4 4 5 5 6 6 6 6 5 5 6 6 6 6 5 5 5 6 6 6 6 6 6 7 8 7 7 7 7 7 7 6 7 8 8 7
2 3 3 3 3 3 4 4 5 5 6 6 6 6 6 6 6 7 6 6 6 6 6 6 6 8 10 8 7 7 7 8 8 7 9 8 8 8 7 7 8 9 8
3 3 4 4 4 4 4 5 5 6 6 6 6 6 6 6 7 7 6 6 7 7 8 7 7 8 10 11 10 9 12 16 14 9 7 7 9 9 9 9 8 8 7
3 3 4 3 4 4 5 5 6 6 6 6 6 6 6 7 7 7 6 6 7 7 7 7 8 10 11 10 11 13 16 16 16 15 9 7 7 8 8 7 8 7 7
Wind_Direction
162 158 151 152 149 145 156 173 180 194 213 244 269 280 292 298 294 295 299 296 296 302 297 292 290 283 275 265 261 258 257 251 264 275 276 278 272 278 287 283 283 278 279
164 155 156 150 147 154 168 177 175 199 237 258 261 271 282 288 284 280 284 292 281 284 288 288 290 290 283 276 266 259 257 253 256 271 279 274 270 270 272 276 285 285 276
153 152 153 154 162 175 181 181 185 202 245 280 281 273 281 285 282 275 266 270 266 267 272 275 279 283 286 281 275 269 264 264 256 262 275 273 270 269 274 279 278 276 280
147 155 166 176 183 187 182 179 193 206 224 254 275 276 279 284 283 275 272 270 267 268 270 271 272 270 274 279 279 272 269 267 260 259 270 273 270 265 263 278 286 279 282
149 159 177 176 171 167 168 176 198 233 256 261 278 287 285 278 272 272 268 270 271 277 278 276 278 281 281 282 282 280 277 270 268 262 268 277 277 278 275 275 282 286 278
146 160 154 143 150 164 177 170 199 266 278 275 273 280 287 289 295 294 293 280 277 280 285 288 287 288 289 293 294 293 290 285 281 275 271 270 274 275 277 278 280 284 283
129 129 135 140 150 176 187 155 249 271 281 284 283 281 282 287 297 299 298 297 283 280 282 289 293 295 300 296 293 295 294 290 283 279 275 271 270 270 272 274 271 273 276
107 99 117 128 132 150 162 211 272 276 283 285 289 287 288 294 305 307 306 300 284 276 274 275 279 286 287 291 287 288 284 285 280 275 267 268 268 264 260 266 270 275 274
95 89 71 129 140 166 247 276 284 292 297 292 292 290 294 300 308 309 309 295 286 281 277 278 282 278 288 295 294 289 291 290 291 283 280 283 285 288 287 283 278 277 281
78 54 41 56 87 239 259 280 299 291 288 298 304 300 290 291 304 310 308 292 287 288 285 283 287 291 294 296 291 285 288 290 292 295 294 294 290 286 287 274 266 270 278
68 55 48 40 8 285 322 326 316 309 311 303 300 301 293 294 304 310 310 303 290 290 290 289 288 296 298 298 299 291 292 299 296 294 292 290 288 279 275 268 261 259 264
76 63 38 13 353 7 359 325 323 312 312 305 303 304 297 296 304 306 308 307 304 294 291 289 289 297 300 302 304 302 304 309 304 298 292 290 291 287 282 279 274 268 262
82 57 13 360 356 349 324 308 317 312 296 297 295 295 299 299 302 310 309 308 307 302 292 294 299 304 308 309 307 310 313 312 304 298 294 292 289 287 288 284 281 279 276
96 17 349 346 335 330 314 298 290 284 282 284 284 289 295 298 295 295 292 299 304 302 300 303 308 310 309 310 312 312 307 297 296 291 294 296 296 292 288 284 284 286 286
77 313 319 312 300 303 300 278 277 257 261 282 277 279 290 291 299 308 310 304 298 293 310 312 310 309 306 303 302 300 299 300 297 292 293 296 297 294 292 291 283 280 276
277 295 289 286 288 291 293 301 299 296 302 302 302 301 298 300 307 310 311 311 312 312 312 301 297 293 292 294 295 296 294 293 292 292 290 291 292 294 295 293 287 283 282
249 272 276 283 285 288 291 298 307 314 312 311 312 312 310 311 314 315 314 316 319 322 309 295 291 289 287 288 289 289 289 289 289 286 285 287 288 289 290 290 288 284 282
270 277 285 269 271 277 281 285 290 299 308 309 312 312 313 314 316 318 319 320 318 317 295 291 291 290 288 287 287 287 288 289 287 286 283 283 284 285 287 285 284 283 283
285 276 273 269 273 276 279 283 283 286 289 296 303 309 312 312 311 313 320 312 298 296 292 288 287 287 287 285 284 283 282 283 284 284 282 279 279 280 278 278 279 283 285
291 292 297 283 277 281 280 279 282 284 287 290 293 297 305 307 302 305 303 292 287 286 287 287 287 284 285 284 283 282 282 281 281 279 279 278 276 275 276 275 274 277 277
294 294 302 299 281 276 274 274 277 281 285 288 286 292 302 298 294 292 291 287 283 283 284 284 284 284 282 282 282 280 279 280 279 277 278 279 277 274 275 275 273 272 273
298 291 285 280 282 281 282 279 280 281 284 287 291 297 305 303 293 290 289 288 286 281 279 280 280 278 277 277 278 279 278 277 277 276 276 278 278 275 274 275 276 276 275
301 296 294 291 287 292 298 292 287 285 285 285 288 292 295 293 291 290 289 289 289 287 285 281 280 280 279 275 271 269 271 272 272 272 275 278 276 273 271 272 274 275 273
306 298 292 292 291 289 290 290 288 287 287 286 287 288 288 288 288 289 289 289 289 286 284 281 278 280 282 282 278 271 270 272 271 267 263 266 271 272 270 268 269 269 270
298 292 288 286 288 288 289 289 289 290 289 289 290 291 291 291 290 290 289 289 289 288 286 283 281 282 282 281 282 281 282 286 288 282 266 261 264 266 267 267 268 271 270
296 290 286 285 285 286 286 287 287 289 289 289 288 288 289 289 289 289 290 290 291 290 290 287 284 284 284 284 285 288 292 294 294 292 286 272 267 268 268 266 267 268 271